This is the latest recevied weather packets stored in our database for station/object K9MWD. If no packets are shown the sender has not sent any weather packets the latest 10 day(s).
| Time | Temp. | Humidity | Pressure | Rain* | Wind** | Luminosity | Snow |
|---|---|---|---|---|---|---|---|
| 1788374516 | 35.56° C | 46% | 1014 hPa | 0 mm | - | 877 W/m² | - |
| 1788374212 | 34.44° C | 47% | 1014 hPa | 0 mm | - | 884 W/m² | - |
| 1788373908 | 35° C | 46% | 1014 hPa | 0 mm | - | 889 W/m² | - |
| 1788373604 | 35° C | 46% | 1014.1 hPa | 0 mm | - | 887 W/m² | - |
| 1788373300 | 35° C | 47% | 1014.1 hPa | 0 mm | - | 891 W/m² | - |
| 1788372996 | 35° C | 48% | 1014.4 hPa | 0 mm | - | 911 W/m² | - |
| 1788372696 | 34.44° C | 50% | 1014.7 hPa | 0 mm | - | 892 W/m² | - |
| 1788372395 | 34.44° C | 49% | 1014.7 hPa | 0 mm | - | 884 W/m² | - |
| 1788372092 | 33.89° C | 50% | 1014.8 hPa | 0 mm | - | 880 W/m² | - |
| 1788371791 | 35° C | 48% | 1015 hPa | 0 mm | - | 881 W/m² | - |
| 1788371487 | 35° C | 48% | 1015 hPa | 0 mm | - | 874 W/m² | - |
| 1788371183 | 33.89° C | 50% | 1015.2 hPa | 0 mm | - | 872 W/m² | - |
| 1788370879 | 34.44° C | 51% | 1015.3 hPa | 0 mm | - | 868 W/m² | - |
| 1788370574 | 34.44° C | 51% | 1015.4 hPa | 0 mm | - | 863 W/m² | - |
| 1788370269 | 33.89° C | 53% | 1015.5 hPa | 0 mm | - | 853 W/m² | - |
| 1788369969 | 33.33° C | 53% | 1015.4 hPa | 0 mm | - | 849 W/m² | - |
| 1788369663 | 33.33° C | 53% | 1015.5 hPa | 0 mm | - | 847 W/m² | - |
| 1788369359 | 33.33° C | 54% | 1015.6 hPa | 0 mm | - | 838 W/m² | - |
| 1788369054 | 33.33° C | 53% | 1015.6 hPa | 0 mm | - | 829 W/m² | - |
| 1788368750 | 32.78° C | 55% | 1015.7 hPa | 0 mm | - | 820 W/m² | - |
| 1788368446 | 33.33° C | 55% | 1015.8 hPa | 0 mm | - | 813 W/m² | - |
| 1788368145 | 33.33° C | 56% | 1016 hPa | 0 mm | - | 810 W/m² | - |
| 1788367839 | 33.33° C | 55% | 1016 hPa | 0 mm | - | 801 W/m² | - |
| 1788367534 | 33.33° C | 55% | 1016 hPa | 0 mm | - | 782 W/m² | - |
| 1788367233 | 32.78° C | 55% | 1016 hPa | 0 mm | - | 777 W/m² | - |
* Rain latest hour (hover to see other rain measurements)
** Current wind speed in m/s (hover to see current wind gust speed)